Terug naar catalogus

YAM-7

ActiefCommunicatieSSO
NORAD 60504·PAYLOAD·🇺🇸 United States

Gelanceerd Aug 16, 2024 vanaf Vandenberg Space Force Base

Loading…

Volgende Passages (komende 24 uur)

TLE

VersSource: Space-Track

Epoch: Sep 14, 2026, 04:37 UTC

1 60504U 24149AN  26257.19250251  .00005377  00000-0  17175-3 0  9998
2 60504  97.3728 337.1196 0002970   5.8247 354.3029 15.32889502115687

Volg YAM-7 in realtime met AllMySat

Download on the App Store